Weather Roundup
Issued by NWS

Home | Current Version | Previous Version | Graphics & Text | Print | Product List | Glossary Off
Versions: 1 2 3 4 5 6 7 8 9 10 11 12 13 14 15 16 17 18 19 20 21 22 23 24 25 26 27 28 29 30 31 32 33 34 35 36 37 38 39 40 41 42 43 44 45 46 47 48 49 50

130
NZUS93 KARX 292359
HRRWXR

CURRENT HOURLY OBSERVATIONS ACROSS
MUCH OF THE UPPER MISSISSIPPI VALLEY
NATIONAL WEATHER SERVICE LA CROSSE WI
700 PM CDT SUN MAY 29 2016


...SOUTHEAST MINNESOTA...


CITY           SKY/WX    TMP DP  RH WIND       PRES   REMARKS
ROCHESTER      SUNNY     74  61  63 W9        29.97F
ROCHESTER/MAYO FAIR      74  58  57 W7        29.96F
WINONA         PTSUNNY   73  55  53 W6        29.94F
AUSTIN         MOSUNNY   75  54  46 NW10      29.96F
ALBERT LEA     SUNNY     77  54  44 W6        29.96F
DODGE CENTER   SUNNY     75  55  50 NW7       29.97S
PRESTON        SUNNY     73  58  59 NW6       29.98S
OWATONNA       SUNNY     75  57  53 W6        29.96S
FARIBAULT      MOSUNNY   73  61  64 W6        29.95F
$$

...ELSEWHERE IN MINNESOTA...


CITY           SKY/WX    TMP DP  RH WIND       PRES   REMARKS
MINNEAPOLIS    CLOUDY    77  54  44 W12       29.92F
INTNL FALLS    PTSUNNY   65  54  67 NW7       29.87S
DULUTH         MOSUNNY   68  52  56 NW14      29.89F
RED WING       MOSUNNY   75  55  50 W9        29.92S
REDWOOD FALLS  SUNNY     78  45  30 NW10      29.95S
MANKATO        MOSUNNY   75  54  46 W10       29.95S
WORTHINGTON    SUNNY     74  50  42 W12       30.01F
FAIRMONT       SUNNY     77  46  33 NW16      29.97F
$$

...SOUTHWEST WISCONSIN...


CITY           SKY/WX    TMP DP  RH WIND       PRES   REMARKS
LA CROSSE      CLOUDY    74  61  63 W7        29.94R
PRAIRIE DU CHI CLOUDY    78  58  50 W7        29.95F
BOSCOBEL       MOSUNNY   79  61  53 S7        29.94F
LONE ROCK      NOT AVBL
PLATTEVILLE    MOSUNNY   76  60  58 W7        29.98F
FORT MC COY    PTSUNNY   76  57  51 W10G16    29.95R
MAUSTON-NEW LI CLOUDY    76  57  51 W7        29.93S
VIROQUA        FAIR      76  57  52 W12       29.96F
WIS DELLS      MOSUNNY   73  56  53 SW6       29.95S
$$

...ELSEWHERE IN WISCONSIN...


CITY           SKY/WX    TMP DP  RH WIND       PRES   REMARKS
MILWAUKEE      MOSUNNY   78  55  44 W13       29.94S
MADISON        CLOUDY    74  57  55 VRB5      29.96S
GREEN BAY      SUNNY     75  60  59 W8        29.88S
EAU CLAIRE     NOT AVBL
BLACK RVR FLS  FAIR      75  54  47 W7        29.93S
MEDFORD        MOSUNNY   69  55  61 W13       29.93S
WAUSAU         MOSUNNY   73  55  53 W18       29.90R
WIS RAPIDS     SUNNY     76  51  41 W15       29.93S
MARSHFIELD     SUNNY     72  57  59 W10       29.93R
RICE LAKE      MOSUNNY   74  54  50 W12       29.93F
$$

...NORTHEAST IOWA...


CITY           SKY/WX    TMP DP  RH WIND       PRES   REMARKS
WATERLOO       CLOUDY    77  58  51 CALM      29.96F
DUBUQUE        CLOUDY    75  53  46 NW14      29.99F
DECORAH        MOSUNNY   73  59  60 W8        29.97S
MASON CITY     SUNNY     75  57  53 W13       29.99F
CHARLES CITY   MOSUNNY   77  57  50 W13       29.98F
OELWEIN        MOSUNNY   77  57  50 NW14      29.99F
$$

...ELSEWHERE IN IOWA...


CITY           SKY/WX    TMP DP  RH WIND       PRES   REMARKS
DES MOINES     MOSUNNY   82  52  35 W6        29.99F
IOWA CITY      MOSUNNY   80  57  45 W10       30.00F
FORT DODGE     MOSUNNY   81  54  39 W9G17     29.99S
MARSHALLTOWN   SUNNY     79  55  43 W12       29.98F
CEDAR RAPIDS   MOSUNNY   79  59  50 W9        29.99F
$$

...NORTHERN ILLINOIS...


CITY           SKY/WX    TMP DP  RH WIND       PRES   REMARKS
CHICAGO-OHARE  MOSUNNY   78  56  46 W12G23    29.97S
CHICAGO-MIDWAY MOSUNNY   80  56  43 W12       29.98S
MOLINE         SUNNY     81  57  43 W7        29.99F
ROCKFORD       MOSUNNY   77  57  50 W8        30.00F
PEORIA         MOSUNNY   81  54  39 NW9       30.02F
$$

NOTE: "FAIR" INDICATES FEW OR NO CLOUDS BELOW 12,000 FEET WITH NO
SIGNIFICANT WEATHER AND/OR OBSTRUCTIONS TO VISIBILITY. WIND
SPEEDS ARE IN MILES-PER-HOUR.




USA.gov is the U.S. government's official web portal to all federal, state and local government web resources and services.